Weather History for KHEI - January, 2014

Change the Weather History Date:

Sunday, January 12, 2014

  Actual Average Record
Temperature  
Mean Temperature 30 °F -  
Max Temperature 39 °F 28 °F 43 °F (2002)
Min Temperature 20 °F 5 °F -29 °F (1998)
Degree Days  
Heating Degree Days 35 49  
Month to date heating degree days 614 588  
Since 1 July heating degree days 4336 4167  
Moisture  
Dew Point 25 °F    
Average Humidity 72    
Maximum Humidity 84    
Minimum Humidity 59    
Precipitation  
Precipitation 0.00 in 0.01 in 0.23 in (2009)
Month to date precipitation 0.07 0.13  
Year to date precipitation 0.07 0.13  
Sea Level Pressure  
Sea Level Pressure 29.55 in    
Wind  
Wind Speed 19 mph (West)    
Max Wind Speed 33 mph    
Max Gust Speed 41 mph    
Visibility 10 miles    
Events      
T = Trace of Precipitation, MM = Missing Value Source: NWS Daily Summary

Daily Weather History Graph

Daily Weather History Graph

Search for Another Location

Airport or City:

Trip Planner

Search our weather history database for the weather conditions in past years. The results will help you decide how hot, cold, wet, or windy it might be!

Date:

Astronomy

Jan. 12, 2014 Rise Set
Actual Time 7:30 AM MST 4:28 PM MST
Civil Twilight 6:56 AM MST 5:01 PM MST
Nautical Twilight 6:19 AM MST 5:39 PM MST
Astronomical Twilight 5:43 AM MST 6:15 PM MST
Moon 1:58 PM MST (1/12) 4:29 AM MST (1/12)
Length of Visible Light 10h 05m
Length of Day
8h 58m
Waxing Gibbous, 90% of the Moon is Illuminated
Jan 12
Waxing Gibbous
Jan 15
Full
Jan 23
Last Quarter
Jan 30
New
Feb 6
First Quarter

Hourly Weather History & Observations

Time (MST) Temp. Windchill Dew Point Humidity Pressure Visibility Wind Dir Wind Speed Gust Speed Precip Events Conditions
12:53 AM 36.0 °F 29.6 °F 30.0 °F 79% 29.37 in 10.0 mi WSW 8.1 mph - N/A   Scattered Clouds
1:53 AM 37.0 °F 28.1 °F 30.0 °F 76% 29.42 in 10.0 mi WSW 15.0 mph - N/A   Overcast
2:53 AM 37.0 °F 29.8 °F 28.9 °F 73% 29.42 in 10.0 mi West 10.4 mph - N/A   Overcast
3:53 AM 37.0 °F 28.9 °F 28.9 °F 73% 29.41 in 10.0 mi WSW 12.7 mph - N/A   Clear
4:53 AM 36.0 °F 26.7 °F 27.0 °F 70% 29.41 in 10.0 mi West 15.0 mph - N/A   Clear
5:53 AM 35.1 °F 25.2 °F 24.1 °F 64% 29.41 in 10.0 mi WSW 16.1 mph - N/A   Clear
6:53 AM 30.0 °F 21.1 °F 21.0 °F 69% 29.41 in 10.0 mi West 10.4 mph - N/A   Clear
7:53 AM 30.9 °F 21.2 °F 21.0 °F 67% 29.44 in 10.0 mi NW 12.7 mph - N/A   Clear
8:53 AM 33.1 °F 23.0 °F 23.0 °F 66% 29.44 in 10.0 mi West 15.0 mph - N/A   Clear
9:53 AM 37.9 °F 27.3 °F 25.0 °F 60% 29.44 in 10.0 mi West 21.9 mph - N/A   Clear
10:53 AM 39.0 °F 28.0 °F 27.0 °F 62% 29.44 in 10.0 mi West 25.3 mph 32.2 mph N/A   Clear
11:53 AM 37.9 °F 27.1 °F 27.0 °F 65% 29.45 in 10.0 mi West 23.0 mph - N/A   Clear
12:53 PM 37.9 °F 26.8 °F 27.0 °F 65% 29.45 in 10.0 mi West 24.2 mph - N/A   Clear
1:53 PM 37.9 °F 26.1 °F 27.0 °F 65% 29.47 in 10.0 mi West 27.6 mph 35.7 mph N/A   Clear
2:53 PM 37.9 °F 26.3 °F 27.0 °F 65% 29.52 in 10.0 mi West 26.5 mph - N/A   Clear
3:53 PM 36.0 °F 25.0 °F 27.0 °F 70% 29.56 in 10.0 mi West 20.7 mph - N/A   Clear
4:53 PM 36.0 °F 22.4 °F 28.0 °F 73% 29.62 in 10.0 mi WNW 33.4 mph 41.4 mph N/A   Overcast
5:22 PM 35.1 °F 21.8 °F 28.9 °F 78% 29.59 in 10.0 mi WNW 29.9 mph 36.8 mph N/A   Overcast
5:53 PM 34.0 °F 21.5 °F 27.0 °F 75% 29.68 in 10.0 mi NW 24.2 mph 38.0 mph N/A   Overcast
6:53 PM 30.0 °F 17.2 °F 24.1 °F 79% 29.75 in 10.0 mi NW 20.7 mph 28.8 mph N/A   Mostly Cloudy
7:53 PM 28.0 °F 14.3 °F 21.9 °F 78% 29.77 in 10.0 mi NW 21.9 mph 26.5 mph N/A   Scattered Clouds
8:53 PM 25.0 °F 11.3 °F 19.0 °F 78% 29.78 in 10.0 mi WNW 18.4 mph - N/A   Clear
9:53 PM 24.1 °F 10.1 °F 19.0 °F 81% 29.79 in 10.0 mi WNW 18.4 mph - N/A   Clear
10:53 PM 19.9 °F 9.3 °F 16.0 °F 85% 29.79 in 10.0 mi NW 9.2 mph - N/A   Clear
11:53 PM 23.0 °F 9.6 °F 19.0 °F 85% 29.80 in 10.0 mi West 16.1 mph - N/A   Clear